www.pogodaiklimat.ru

Погода и климат >> Архив погоды >> Пакистан >> Сиби


ПОГОДА в Сиби

  • Прогноз погоды в Сиби
  • Монитор погоды в Сиби

АРХИВ ПОГОДЫ в Сиби

Время (UTC), дата Ветер
(напр.,м/с)
 
Видим.   Явления Облачность Т
(С)
Тd
(С)
f
(%)
Тe
(С)
Тes
(С)
Комфортность P
(гПа)
Po
(гПа)
Тmin
(С)
Tmax
(С)
R
(мм)
R24
(мм)
S
(см)
18 16.08 штиль 0 4000 м ясно +35.6 +24.3 52 +48 +48 опасность
перегрева
997.4 1000.0
21 16.08 штиль 0 4000 м ясно +32.2 +24.6 64 +45 +45 опасность
перегрева
997.3 1000.0
00 17.08 штиль 0 4000 м ясно +30.0 +24.3 72 +42 +42 опасность
перегрева
996.6 981.8
03 17.08 штиль 0 10 км ясно +33.3 +25.1 62 +47 +53 опасность
перегрева
998.0 983.3 +27.1
06 17.08 штиль 0 10 км ясно +36.1 +26.4 58 +53 +77 опасность
перегрева
998.4 1000.0
09 17.08 штиль 0 10 км ясно +38.9 +26.8 51 +56 +80 опасность
перегрева
995.5 1000.0
12 17.08 штиль 0 10 км ясно +40.6 +27.8 49 +59 +65 опасность
перегрева
993.2 979.0 +42.1
15 17.08 штиль 0 4000 м ясно +37.2 +26.8 55 +54 +54 опасность
перегрева
994.9 1000.0
18 17.08 ЮЗ 2 4000 м 5/5 1200 м
[Sc]
+35.0 +26.8 63 +53 +53 опасность
перегрева
997.8 1000.0
21 17.08 штиль 0 4000 м 5/5 1200 м
[Sc]
+33.3 +25.9 65 +49 +49 опасность
перегрева
997.1 982.3
00 18.08 штиль 0 4000 м ясно +31.1 +24.6 68 +44 +44 опасность
перегрева
996.3 981.6
03 18.08 штиль 0 10 км ясно +33.9 +26.5 65 +51 +56 опасность
перегрева
997.5 982.8 +25.0
06 18.08 штиль 0 10 км ясно +36.7 +27.0 58 +55 +78 опасность
перегрева
1000.7 1000.0
09 18.08 ЮВ 1 10 км ясно +39.4 +26.6 49 +56 +76 опасность
перегрева
998.4 1000.0
12 18.08 штиль 0 10 км ясно +41.1 +26.8 45 +57 +63 опасность
перегрева
996.1 981.9 +43.0
15 18.08 штиль 0 4000 м ясно +37.8 +26.4 52 +54 +54 опасность
перегрева
997.8 1000.0
18 18.08 штиль 0 4000 м 5/5 1200 м
[Sc]
+34.4 +26.3 63 +51 +51 опасность
перегрева
999.7 1000.0
21 18.08 штиль 0 4000 м 5/5 1200 м
[Sc]
+32.2 +25.0 66 +46 +46 опасность
перегрева
999.5 1000.0
00 19.08 штиль 0 4000 м 5/5 1200 м
[Sc]
+29.4 +23.8 72 +40 +40 очень
душно
999.4 984.5
03 19.08 штиль 0 10 км ясно +32.8 +26.1 68 +49 +54 опасность
перегрева
1000.7 986.0 +24.0
06 19.08 штиль 0 10 км ясно +35.6 +26.6 60 +53 +76 опасность
перегрева
1003.9 1000.0
09 19.08 штиль 0 10 км ясно +38.3 +27.8 55 +57 +81 опасность
перегрева
1001.6 1000.0
12 19.08 штиль 0 10 км ясно +40.6 +27.8 49 +59 +65 опасность
перегрева
998.8 984.6 +42.1
15 19.08 штиль 0 4000 м ясно +37.2 +27.6 58 +56 +56 опасность
перегрева
1000.0 985.4
18 19.08 штиль 0 4000 м ясно +33.9 +25.7 62 +49 +49 опасность
перегрева
1002.8 1000.0
21 19.08 штиль 0 4000 м ясно +31.7 +24.4 65 +44 +44 опасность
перегрева
1002.0 1000.0
00 20.08 штиль 0 50 км ?/? +29.4 +23.8 72 +40 +40 очень
душно
1001.4 986.5
03 20.08 штиль 0 10 км ясно +32.8 +24.6 62 +46 +51 опасность
перегрева
1002.5 987.8 +24.1
06 20.08 штиль 0 10 км ясно +36.1 +25.6 55 +51 +74 опасность
перегрева
1005.0 1000.0
09 20.08 штиль 0 10 км ясно +38.9 +26.0 48 +54 +77 опасность
перегрева
1002.4 1000.0
12 20.08 штиль 0 10 км ясно +41.7 +26.6 43 +57 +62 опасность
перегрева
999.0 984.8 +43.1
15 20.08 штиль 0 4000 м ясно +38.9 +25.2 46 +52 +52 опасность
перегрева
999.8 985.2
18 20.08 штиль 0 4000 м ясно +35.6 +25.9 57 +51 +51 опасность
перегрева
1001.6 1000.0
21 20.08 штиль 0 4000 м ясно +33.3 +25.1 62 +47 +47 опасность
перегрева
1001.0 1000.0
00 21.08 штиль 0 4000 м ясно +30.6 +24.1 68 +42 +42 опасность
перегрева
1000.4 985.6
03 21.08 штиль 0 10 км ясно +33.9 +25.7 62 +49 +54 опасность
перегрева
1002.2 987.5 +25.1
06 21.08 штиль 0 10 км ясно +37.2 +25.1 50 +51 +74 опасность
перегрева
1003.2 1000.0
09 21.08 штиль 0 10 км ясно +40.0 +26.4 47 +56 +79 опасность
перегрева
1000.3 1000.0
12 21.08 штиль 0 10 км ясно +42.2 +27.2 43 +59 +64 опасность
перегрева
996.0 981.9 +44.0
15 21.08 штиль 0 4000 м ясно +38.9 +26.0 48 +54 +54 опасность
перегрева
997.3 1000.0
18 21.08 штиль 0 4000 м ясно +36.1 +25.6 55 +51 +51 опасность
перегрева
999.6 1000.0
21 21.08 штиль 0 4000 м ясно +33.9 +24.9 59 +47 +47 опасность
перегрева
999.0 1000.0
00 22.08 штиль 0 4000 м ясно +31.7 +23.6 62 +43 +43 опасность
перегрева
998.8 984.1
03 22.08 штиль 0 10 км ясно +34.4 +26.3 63 +51 +56 опасность
перегрева
1000.0 985.4 +26.1
06 22.08 штиль 0 10 км ясно +36.7 +27.0 58 +55 +78 опасность
перегрева
1002.2 1000.0
09 22.08 штиль 0 10 км ясно +39.4 +26.6 49 +56 +79 опасность
перегрева
999.9 1000.0
12 22.08 штиль 0 10 км ясно +42.2 +27.2 43 +59 +64 опасность
перегрева
997.0 982.9 +44.1
15 22.08 штиль 0 4000 м ясно +39.4 +26.6 49 +56 +56 опасность
перегрева
998.2 1000.0
18 22.08 ЮВ 2 4000 м 5/5 1200 м
[Sc]
+35.6 +26.6 60 +53 +53 опасность
перегрева
1000.7 986.0
21 22.08 штиль 0 4000 м 5/5 1200 м
[Sc]
+32.8 +25.3 65 +47 +47 опасность
перегрева
1000.2 1000.0
00 23.08 штиль 0 4000 м ясно +30.6 +24.1 68 +42 +42 опасность
перегрева
999.8 985.0
03 23.08 штиль 0 10 км ясно +33.3 +25.9 65 +49 +54 опасность
перегрева
1000.8 986.1 +27.0
06 23.08 штиль 0 10 км ясно +35.6 +26.6 60 +53 +76 опасность
перегрева
988.5 1000.0
09 23.08 штиль 0 10 км ясно +38.3 +27.8 55 +57 +81 опасность
перегрева
1000.4 1000.0
12 23.08 штиль 0 50 км ?/? +41.1 +26.8 45 +57 +62 опасность
перегрева
998.1 983.9 +43.1

 

Местоположение метеостанции Сиби (Пакистан): широта 29.55 долгота 67.88 высота над уровнем моря 134 м.

В архиве по умолчанию представлена погода в Сиби за последнюю неделю. Архивные данные за месяц целиком и за предыдущие месяцы, начиная с января 2011 года, Вы можете получить, выбрав интересующий диапазон дат из раскрывающегося списка и нажав кнопку "Ввод!".


*Определитесь, кто Вы:
робот инопланетянин человек

Внимание! Время в таблицах - всемирное. Для получения местного времени необходимо прибавить поправку, которая равна 5 ч.

Смотрите также архив погоды в соседних городах и на ближайших метеорологических станциях:

Погода в Кветта Шейх Манда (Пакистан) (122 км)
Погода в Кветте (Пакистан) (124 км)
Погода в Калате (Пакистан) (139 км)
Погода в Джейкобабаде (Пакистан) (150 км)
Погода в Бархане (Пакистан) (181 км)
Погода в Суккуре (Пакистан) (222 км)
Погода в Ларкане (Пакистан) (224 км)
Погода в Хуздаре (Пакистан) (227 км)
Погода в Рохри (Пакистан) (232 км)
Погода в Мохенджо-Даро (Пакистан) (249 км)

Пояснения к столбцам:

Ветер - указаны скорость ветра в м/с - средняя за 10 мин, порывы в срок и между сроками (в фигурных скобках) и направление, откуда дует ветер: С - северный, СВ - северо-восточный, В - восточный, ЮВ - юго-восточный, Ю - южный, ЮЗ - юго-западный, З - западный, СЗ - северо-западный.
Видимость - горизонтальная дальность видимости в метрах или километрах. При видимости от 1 до 10 км при отсутствии осадков обычно наблюдается дымка, при ухудшении видимости до 1 км и менее - туман. В сухую погоду видимость может ухудшаться дымом, пылью или мглою.
Явления - указаны атмосферные явления, наблюдавшиеся в срок или в последний час перед сроком; фигурными скобками обозначены явления, наблюдавшиеся между сроками (за 1-3 часа до срока); квадратными скобками обозначены град или гололедные отложения с указанием их диаметра в мм.
Облачность - указаны через наклонную черту общая и нижняя облачность в баллах и высота нижней границы облаков в метрах; квадратными скобками обозначены формы облаков: Ci - перистые, Cs - перисто-слоистые, Cc - перисто-кучевые, Ac - высококучевые, As - высокослоистые, Sc - слоисто-кучевые, Ns - слоисто-дождевые, Cu - кучевые, Cb - кучево-дождевые. Подробнее классификацию облаков см. в Атласе облаков (PDF).
T - Температура воздуха - температура, измеренная на высоте 2 м над землей.
Td - Температура точки росы - температура, при понижении до которой содержащийся в воздухе водяной пар достигнет насыщения.
f - Относительная влажность воздуха - влажноcть воздуха, измеренная на высоте 2 м над землей.
Te - Эффективная температура - температура, которую ощущает одетый по сезону человек в тени. Характеристика душности погоды. При расчете учитывается влияние влажности воздуха и скорости ветра на теплоощущения человека.
Tes - Эффективная температура на солнце - температура, которую ощущает человек, с поправкой на солнечный нагрев. Характеристика знойности погоды. Зависит от высоты солнца над горизонтом, облачности и скорости ветра. Ночью, в пасмурную погоду, а также при ветре 12 м/с и более поправка равна нулю.
P - Атмосферное давление - приведенное к уровню моря атмосферное давление.
Po - Атмосферное давление - измеренное на уровне метеостанции атмосферное давление.
Tmin - Минимальная температура - минимум температуры воздуха на высоте 2 м над землей.
Tmax - Максимальная температура - максимум температуры воздуха на высоте 2 м над землей.
R - Количество осадков - Количество выпавших осадков за период времени, мм. При наведении курсора мыши на число - период времени, за который выпало указанное количество осадков.
R24 - Количество осадков - Количество выпавших осадков за 24 часа, мм.
S - Снежный покров - Высота снежного покрова, см. При наведении курсора мыши на число - состояние снежного покрова и степень покрытия местности в баллах.